Location: *
(37.9500°N, 27.3666°E)
Time: 13:39:39
(UTC+00:00)

Feng Yun 1-1 Rocket - Pass Details

Date: 24 October 2021
Orbit: 830 x 933 km, 99.2° (Epoch: 03 December)

Event Time Altitude Azimuth Distance (km) Brightness Sun altitude
Rises 16:37:25 0° 157° (SSE) 3,406 7.1 -15.7°
Reaches altitude 10° 16:39:45 10° 154° (SSE) 2,487 6.4 -16.2°
Maximum altitude 16:45:14 68° 73° (ENE) 944 4.2 -17.3°
Drops below altitude 10° 16:50:54 10° 352° (N) 2,571 6.8 -18.4°
Sets 16:53:21 0° 350° (N) 3,530 7.6 -18.9°
